This is the latest recevied weather packets stored in our database for station/object N2QDK-2. If no packets are shown the sender has not sent any weather packets the latest 10 day(s).
| Time | Temp. | Humidity | Pressure | Rain* | Wind** | Luminosity | Snow |
|---|---|---|---|---|---|---|---|
| 1777880117 | 10° C | 61% | 1007.8 hPa | 0 mm | - | - | - |
| 1777879517 | 10.56° C | 61% | 1007.8 hPa | 0 mm | - | - | - |
| 1777878917 | 10.56° C | 61% | 1008 hPa | 0 mm | - | - | - |
| 1777878317 | 10.56° C | 60% | 1008.1 hPa | 0 mm | - | - | - |
| 1777877717 | 10.56° C | 61% | 1008.1 hPa | 0 mm | - | - | - |
| 1777877117 | 10.56° C | 61% | 1008.2 hPa | 0 mm | - | - | - |
| 1777876517 | 10.56° C | 61% | 1008.3 hPa | 0 mm | - | - | - |
| 1777875917 | 10.56° C | 62% | 1008.3 hPa | 0 mm | - | - | - |
| 1777875317 | 10.56° C | 63% | 1008.3 hPa | 0 mm | - | - | - |
| 1777874717 | 10.56° C | 62% | 1008.4 hPa | 0 mm | - | - | - |
| 1777874117 | 10.56° C | 62% | 1008.4 hPa | 0 mm | - | - | - |
| 1777873517 | 10.56° C | 61% | 1008.4 hPa | 0 mm | - | - | - |
| 1777872917 | 10.56° C | 61% | 1008.5 hPa | 0 mm | - | - | - |
| 1777872317 | 11.11° C | 60% | 1008.6 hPa | 0 mm | - | - | - |
| 1777871717 | 11.11° C | 59% | 1008.7 hPa | 0 mm | - | - | - |
| 1777871117 | 11.11° C | 58% | 1008.7 hPa | 0 mm | - | - | - |
| 1777870517 | 11.67° C | 58% | 1008.8 hPa | 0 mm | - | - | - |
| 1777869917 | 11.67° C | 57% | 1008.9 hPa | 0 mm | - | - | - |
| 1777869317 | 12.22° C | 56% | 1008.9 hPa | 0 mm | - | - | - |
| 1777868716 | 12.78° C | 55% | 1008.9 hPa | 0 mm | - | - | - |
| 1777868117 | 12.78° C | 54% | 1008.7 hPa | 0 mm | - | - | - |
| 1777867516 | 12.78° C | 55% | 1008.8 hPa | 0 mm | - | - | - |
| 1777866917 | 12.78° C | 55% | 1008.7 hPa | 0 mm | - | - | - |
| 1777866317 | 12.78° C | 56% | 1008.8 hPa | 0 mm | - | - | - |
| 1777865717 | 12.22° C | 56% | 1008.8 hPa | 0 mm | - | - | - |
* Rain latest hour (hover to see other rain measurements)
** Current wind speed in m/s (hover to see current wind gust speed)